Regional Weather Roundup
Issued by NWS Northern Indiana

Home | Current Version | Previous Version | Graphics & Text | Print | Product List | Glossary On
Versions: 1 2 3 4 5 6 7 8 9 10 11 12 13 14 15 16 17 18 19 20 21 22 23 24 25 26 27 28 29 30 31 32 33 34 35 36 37 38 39 40 41 42 43 44 45 46 47 48 49 50
000
ASUS43 KIWX 291210
RWRIWX

KIWX WEATHER ROUNDUP
NATIONAL WEATHER SERVICE NORTHERN INDIANA
800 AM EDT SAT APR 29 2017

NOTE: "FAIR" INDICATES FEW OR NO CLOUDS BELOW 12,000 FEET WITH NO
SIGNIFICANT WEATHER AND/OR OBSTRUCTIONS TO VISIBILITY.

* THESE STATIONS ARE NOT UNDER NWS QUALITY CONTROL. THEY ALSO MAY NOT
  REPORT WEATHER SUCH AS PRECIPITATION OR FOG.

INZ001>027-291300-
NORTHERN INDIANA

CITY           SKY/WX    TMP DP  RH WIND       PRES   REMARKS
GARY*          CLOUDY    46  39  76 N12G23    30.15R
VALPARAISO     CLOUDY    47  43  86 N12       30.09R
6HR MIN TEMP:  47; 6HR MAX TEMP:  51;

MICHIGAN CITY* CLOUDY    45  45 100 N7        30.12R
LAPORTE*       CLOUDY    48  42  79 N14       30.10S
6HR MIN TEMP:  47; 6HR MAX TEMP:  53;

KNOX*          CLOUDY    48  30  49 N12       30.08R
SOUTH BEND     CLOUDY    48  41  76 N13       30.09S
6HR MIN TEMP:  48; 6HR MAX TEMP:  55;

ELKHART*       SUNNY     50  41  71 NE10      30.08
GOSHEN         CLOUDY    52  45  77 N10       30.06F
6HR MIN TEMP:  51; 6HR MAX TEMP:  54;

MONTICELLO*    LGT RAIN  51  49  95 N9        30.02S
6HR MIN TEMP:  51; 6HR MAX TEMP:  54; 6HR PCP:  0.09;

LOGANSPORT*    HVY RAIN  52  52 100 CALM      30.04R
ROCHESTER*     LGT RAIN  55  50  82 N7        30.05R
WARSAW*        CLOUDY    54  48  82 NE7       30.05R
ANGOLA*        CLOUDY    52  39  62 N7        30.07R
FORT WAYNE     LGT RAIN  56  53  90 NE8       30.05R FOG
6HR MIN TEMP:  54; 6HR MAX TEMP:  56; 6HR PCP:  0.02;

HUNTINGTON*    LGT RAIN  54  53  96 NE6       30.03R
6HR MIN TEMP:  53; 6HR MAX TEMP:  54; 6HR PCP:  0.04;

PERU/GRISSOM   RAIN      54  54 100 N6        30.03R FOG
6HR MIN TEMP:  53; 6HR MAX TEMP:  54; 6HR PCP:  0.18;


$$
INZ028>050-291300-
CENTRAL INDIANA

CITY           SKY/WX    TMP DP  RH WIND       PRES   REMARKS
LAFAYETTE      LGT RAIN  52  52 100 NW7       30.05R FOG
6HR MIN TEMP:  52; 6HR MAX TEMP:  54; 6HR PCP:  0.19;

KOKOMO*        LGT RAIN  54  53  97 NE6       30.04R FOG
6HR MIN TEMP:  53; 6HR MAX TEMP:  55; 6HR PCP:  0.12;

MUNCIE*        LGT RAIN  57  55  93 NE5       30.01S FOG
6HR MIN TEMP:  57; 6HR MAX TEMP:  58; 6HR PCP:  0.36;

INDIANAPOLIS   TSTM      57  56  96 N10       29.98F FOG
6HR MIN TEMP:  57; 6HR MAX TEMP:  57; 6HR PCP:  0.76;


$$
MIZ043>046-050>051-056>058-064>065-071>073-077>080-291300-
SOUTHWEST LOWER MICHIGAN

CITY           SKY/WX    TMP DP  RH WIND       PRES   REMARKS
BATTLE CREEK   CLOUDY    47  41  80 NE14      30.14R
6HR MIN TEMP:  47; 6HR MAX TEMP:  54;

BENTON HARBOR  CLOUDY    47  40  76 NE7       30.13R
6HR MIN TEMP:  47; 6HR MAX TEMP:  51;

COLDWATER*     CLOUDY    49  43  80 NE12G18   30.10R
6HR MIN TEMP:  49; 6HR MAX TEMP:  53;

HILLSDALE*     CLOUDY    46  41  81 N8        30.10R
HOLLAND        CLOUDY    46  38  73 NE7       30.17R
6HR MIN TEMP:  45; 6HR MAX TEMP:  49; 6HR PCP:  0.01;

GRAND RAPIDS   CLOUDY    45  38  76 NE13      30.16R
6HR MIN TEMP:  44; 6HR MAX TEMP:  51; 6HR PCP:  0.01;

KALAMAZOO      CLOUDY    48  39  71 NE10      30.14R
6HR MIN TEMP:  48; 6HR MAX TEMP:  55;

STURGIS*       CLOUDY    49  44  81 NE8G16    30.09R
6HR MIN TEMP:  49; 6HR MAX TEMP:  53;

THREE RIVERS*  CLOUDY    49  41  74 NE9       30.11R

$$
OHZ001>008-015>018-024>025-291300-
NORTHWEST OHIO

CITY           SKY/WX    TMP DP  RH WIND       PRES   REMARKS
WAUSEON*       CLOUDY    55  52  88 N8G14     30.07R
DEFIANCE       CLOUDY    54  53  97 N9        30.05R FOG
6HR MIN TEMP:  52; 6HR MAX TEMP:  54;

FINDLAY        LGT RAIN  57  53  86 NE15      29.98F FOG
6HR MIN TEMP:  56; 6HR MAX TEMP:  57; 6HR PCP:  0.11;

TOLEDO EXPRESS CLOUDY    54  54 100 N7        30.05R FOG
6HR MIN TEMP:  53; 6HR MAX TEMP:  54; 6HR PCP:  0.03;

TOLEDO METCALF CLOUDY    56  55  97 NE7       30.06S
6HR MIN TEMP:  54; 6HR MAX TEMP:  56; 6HR PCP:  0.05;

LIMA           LGT RAIN  55  55 100 CALM      30.04R
6HR MIN TEMP:  55; 6HR MAX TEMP:  57; 6HR PCP:  0.54;


$$
AND FOR LAKE MICHIGAN COASTAL AND OPEN LAKE BUOY OBSERVATIONS

STATION/POSITION TEMP    WIND        PRES    VSBY  WAVE
                 AIR SEA DIR/SP/G                  HT/PER
                 (F)     (DEG/KT/KT) (MB)    (MI)  (FT/S)
CALUMET HARBOR    44     340/ 13/ 17 1020.5R
MICHIGAN CITY     44      10/ 23/ 24   N/A
BURNS HARBOR      45      20/ 19/ 22 1020.3R
SOUTH LAKE BUOY   42 41   20/ 16/ 19 1020.2          3/ 4
4 MI NW BRIDGMAN  47 49   70/ 16/ 19 1021.1          4/ 4
MICHIGAN CITY     44 46                N/A           5/ 5

$$
&&




USA.gov is the U.S. government's official web portal to all federal, state and local government web resources and services.